QPF
0.06 0.04 0.02 0.02 0.02 0.02 0.01 0.01 0.03 0.03 0.04 0.05 0.05 0.06 0.06 0.06 0.04 0.03 0.03 0.03 0.03 0.02 0.02 0.02 0.02 0.02 0.01 0.01 0.01 0.00 0.00 0.00 0.00 0.01 0.01 0.01 0.00 0.01 0.01 0.02 0.10 0.22 0.09
0.03 0.04 0.03 0.02 0.02 0.02 0.01 0.01 0.02 0.03 0.04 0.06 0.06 0.07 0.07 0.06 0.04 0.03 0.03 0.03 0.04 0.03 0.03 0.03 0.02 0.02 0.02 0.02 0.01 0.01 0.01 0.00 0.01 0.01 0.02 0.04 0.03 0.01 0.01 0.03 0.10 0.18 0.08
0.01 0.02 0.02 0.01 0.02 0.02 0.02 0.02 0.01 0.03 0.04 0.05 0.06 0.06 0.06 0.06 0.06 0.05 0.05 0.03 0.04 0.04 0.04 0.03 0.03 0.03 0.02 0.02 0.02 0.02 0.02 0.01 0.01 0.02 0.04 0.16 0.17 0.06 0.03 0.02 0.04 0.05 0.04
0.01 0.01 0.02 0.01 0.01 0.01 0.01 0.02 0.02 0.03 0.03 0.05 0.05 0.06 0.06 0.06 0.06 0.06 0.06 0.05 0.05 0.06 0.05 0.05 0.05 0.05 0.04 0.03 0.02 0.02 0.02 0.02 0.02 0.02 0.09 0.17 0.24 0.14 0.05 0.03 0.03 0.03 0.04
0.00 0.01 0.02 0.01 0.01 0.01 0.01 0.02 0.02 0.03 0.03 0.04 0.04 0.05 0.06 0.07 0.06 0.07 0.07 0.06 0.06 0.08 0.09 0.08 0.07 0.06 0.05 0.05 0.04 0.03 0.02 0.02 0.02 0.03 0.10 0.17 0.26 0.17 0.05 0.05 0.06 0.06 0.06
0.00 0.01 0.01 0.00 0.01 0.01 0.02 0.02 0.02 0.03 0.03 0.04 0.04 0.05 0.06 0.07 0.07 0.06 0.07 0.07 0.07 0.08 0.09 0.10 0.09 0.07 0.07 0.06 0.06 0.05 0.04 0.02 0.02 0.08 0.13 0.17 0.24 0.17 0.06 0.05 0.07 0.06 0.05
0.00 0.00 0.00 0.00 0.01 0.01 0.01 0.01 0.02 0.02 0.03 0.04 0.04 0.05 0.07 0.08 0.08 0.07 0.08 0.09 0.09 0.08 0.09 0.10 0.11 0.10 0.09 0.09 0.08 0.06 0.05 0.04 0.03 0.09 0.12 0.16 0.20 0.12 0.07 0.05 0.07 0.08 0.07
0.00 0.01 0.00 0.00 0.01 0.01 0.01 0.01 0.01 0.01 0.01 0.02 0.03 0.03 0.04 0.04 0.04 0.05 0.06 0.07 0.08 0.09 0.10 0.09 0.11 0.12 0.09 0.08 0.08 0.06 0.05 0.04 0.04 0.08 0.12 0.15 0.16 0.08 0.05 0.04 0.06 0.08 0.09
0.00 0.01 0.01 0.00 0.00 0.00 0.00 0.00 0.00 0.00 0.00 0.01 0.01 0.01 0.01 0.02 0.03 0.04 0.05 0.05 0.06 0.07 0.07 0.08 0.11 0.12 0.10 0.08 0.07 0.06 0.06 0.05 0.04 0.07 0.07 0.15 0.13 0.08 0.05 0.05 0.06 0.07 0.09
0.00 0.00 0.00 0.00 0.00 0.00 0.00 0.00 0.00 0.00 0.00 0.00 0.00 0.01 0.02 0.02 0.02 0.02 0.03 0.03 0.04 0.05 0.06 0.07 0.10 0.13 0.13 0.11 0.08 0.06 0.06 0.05 0.04 0.05 0.08 0.12 0.10 0.07 0.08 0.06 0.05 0.06 0.08
0.00 0.00 0.00 0.00 0.00 0.00 0.00 0.00 0.00 0.00 0.00 0.00 0.00 0.01 0.01 0.01 0.02 0.03 0.03 0.03 0.04 0.04 0.06 0.09 0.12 0.14 0.15 0.11 0.08 0.07 0.06 0.04 0.06 0.07 0.08 0.11 0.08 0.06 0.07 0.05 0.05 0.06 0.05
0.00 0.00 0.00 0.00 0.00 0.00 0.00 0.00 0.00 0.00 0.00 0.00 0.00 0.01 0.01 0.02 0.03 0.03 0.03 0.03 0.04 0.05 0.05 0.07 0.08 0.09 0.10 0.10 0.11 0.08 0.04 0.03 0.05 0.06 0.09 0.09 0.07 0.06 0.05 0.06 0.06 0.08 0.06
0.00 0.00 0.00 0.00 0.00 0.00 0.00 0.00 0.00 0.00 0.00 0.00 0.00 0.00 0.00 0.01 0.02 0.03 0.04 0.04 0.05 0.05 0.07 0.09 0.09 0.07 0.06 0.09 0.12 0.09 0.05 0.04 0.04 0.07 0.11 0.10 0.07 0.06 0.06 0.06 0.05 0.06 0.06
0.00 0.00 0.00 0.00 0.00 0.00 0.00 0.00 0.00 0.00 0.00 0.00 0.00 0.00 0.00 0.01 0.02 0.04 0.04 0.05 0.05 0.07 0.10 0.14 0.16 0.12 0.10 0.10 0.10 0.10 0.08 0.07 0.06 0.09 0.11 0.11 0.08 0.06 0.08 0.07 0.07 0.06 0.06
0.00 0.00 0.00 0.00 0.00 0.00 0.00 0.00 0.00 0.00 0.00 0.00 0.00 0.00 0.00 0.01 0.02 0.03 0.04 0.05 0.05 0.06 0.08 0.09 0.12 0.13 0.12 0.12 0.10 0.10 0.12 0.11 0.08 0.06 0.08 0.08 0.06 0.05 0.07 0.07 0.07 0.06 0.07
0.00 0.00 0.00 0.00 0.00 0.00 0.00 0.00 0.00 0.00 0.00 0.00 0.00 0.01 0.01 0.02 0.01 0.02 0.03 0.05 0.06 0.06 0.07 0.07 0.08 0.10 0.11 0.13 0.13 0.11 0.13 0.12 0.10 0.07 0.07 0.08 0.04 0.03 0.04 0.05 0.06 0.08 0.07
0.00 0.00 0.00 0.00 0.00 0.00 0.00 0.00 0.00 0.00 0.00 0.00 0.01 0.01 0.01 0.01 0.01 0.02 0.04 0.06 0.06 0.06 0.06 0.08 0.08 0.10 0.10 0.11 0.13 0.14 0.13 0.14 0.15 0.09 0.08 0.11 0.09 0.04 0.02 0.03 0.05 0.08 0.08
0.00 0.00 0.00 0.00 0.00 0.00 0.00 0.00 0.00 0.00 0.00 0.00 0.01 0.01 0.01 0.01 0.01 0.03 0.06 0.06 0.06 0.06 0.05 0.06 0.08 0.10 0.12 0.12 0.13 0.13 0.13 0.14 0.15 0.08 0.07 0.08 0.11 0.09 0.05 0.02 0.03 0.05 0.08
0.00 0.00 0.00 0.00 0.00 0.00 0.00 0.00 0.00 0.00 0.00 0.01 0.01 0.02 0.02 0.02 0.02 0.03 0.06 0.07 0.06 0.07 0.06 0.05 0.08 0.09 0.12 0.14 0.12 0.15 0.14 0.13 0.13 0.08 0.08 0.10 0.12 0.14 0.14 0.06 0.02 0.02 0.04
0.00 0.00 0.00 0.00 0.00 0.00 0.00 0.00 0.01 0.01 0.01 0.01 0.01 0.01 0.01 0.02 0.02 0.03 0.05 0.07 0.07 0.10 0.09 0.07 0.09 0.09 0.10 0.11 0.10 0.14 0.14 0.11 0.09 0.10 0.13 0.15 0.12 0.12 0.16 0.12 0.07 0.02 0.02
0.00 0.00 0.00 0.00 0.00 0.00 0.00 0.01 0.01 0.01 0.01 0.01 0.01 0.01 0.01 0.02 0.03 0.03 0.04 0.06 0.06 0.07 0.07 0.06 0.08 0.08 0.08 0.09 0.10 0.13 0.14 0.10 0.08 0.09 0.12 0.13 0.11 0.10 0.15 0.17 0.12 0.09 0.04
0.00 0.00 0.00 0.00 0.00 0.00 0.00 0.01 0.00 0.01 0.00 0.01 0.01 0.01 0.01 0.02 0.03 0.03 0.03 0.04 0.04 0.05 0.05 0.05 0.06 0.07 0.07 0.07 0.08 0.12 0.14 0.15 0.12 0.07 0.08 0.09 0.10 0.11 0.14 0.12 0.12 0.13 0.11
0.00 0.00 0.00 0.00 0.00 0.00 0.00 0.00 0.01 0.01 0.01 0.01 0.01 0.01 0.01 0.01 0.02 0.03 0.02 0.03 0.04 0.04 0.05 0.05 0.06 0.06 0.06 0.06 0.07 0.10 0.13 0.16 0.17 0.11 0.07 0.05 0.09 0.11 0.14 0.14 0.11 0.13 0.14
0.00 0.00 0.00 0.00 0.00 0.00 0.00 0.00 0.00 0.00 0.00 0.00 0.00 0.01 0.01 0.01 0.01 0.01 0.02 0.03 0.03 0.04 0.04 0.03 0.04 0.06 0.05 0.07 0.07 0.08 0.09 0.10 0.13 0.14 0.11 0.07 0.09 0.09 0.11 0.13 0.10 0.11 0.12
0.00 0.00 0.00 0.00 0.00 0.00 0.00 0.00 0.00 0.00 0.00 0.00 0.00 0.00 0.01 0.01 0.00 0.00 0.01 0.02 0.03 0.04 0.04 0.02 0.03 0.04 0.05 0.06 0.07 0.07 0.06 0.05 0.06 0.09 0.11 0.10 0.09 0.09 0.08 0.14 0.13 0.09 0.09
0.00 0.00 0.00 0.00 0.00 0.00 0.00 0.00 0.00 0.00 0.00 0.00 0.00 0.00 0.00 0.00 0.00 0.00 0.01 0.02 0.03 0.04 0.03 0.02 0.02 0.02 0.03 0.04 0.05 0.06 0.05 0.04 0.05 0.07 0.08 0.09 0.09 0.09 0.08 0.10 0.12 0.10 0.09
MSLP
1011.02 1010.67 1010.42 1010.33 1010.45 1010.71 1011.06 1011.39 1011.62 1011.74 1011.73 1011.66 1011.60 1011.61 1011.73 1011.96 1012.25 1012.54 1012.76 1012.87 1012.86 1012.77 1012.64 1012.52 1012.46 1012.48 1012.55 1012.65 1012.72 1012.73 1012.67 1012.56 1012.43 1012.32 1012.26 1012.27 1012.34 1012.44 1012.53 1012.58 1012.58 1012.53 1012.47
1011.02 1010.65 1010.41 1010.36 1010.53 1010.84 1011.22 1011.56 1011.78 1011.87 1011.83 1011.73 1011.66 1011.67 1011.80 1012.04 1012.34 1012.63 1012.83 1012.93 1012.90 1012.80 1012.67 1012.56 1012.53 1012.57 1012.66 1012.76 1012.82 1012.81 1012.73 1012.59 1012.43 1012.30 1012.24 1012.26 1012.35 1012.46 1012.57 1012.65 1012.66 1012.62 1012.56
1010.98 1010.62 1010.40 1010.41 1010.63 1010.99 1011.39 1011.74 1011.96 1012.02 1011.96 1011.85 1011.76 1011.77 1011.90 1012.13 1012.41 1012.67 1012.84 1012.90 1012.85 1012.73 1012.60 1012.52 1012.51 1012.58 1012.70 1012.81 1012.88 1012.86 1012.75 1012.59 1012.41 1012.27 1012.21 1012.23 1012.33 1012.46 1012.59 1012.68 1012.72 1012.70 1012.66
1010.91 1010.57 1010.41 1010.49 1010.76 1011.17 1011.59 1011.94 1012.14 1012.19 1012.11 1011.99 1011.90 1011.90 1012.02 1012.23 1012.47 1012.68 1012.80 1012.81 1012.72 1012.59 1012.47 1012.41 1012.44 1012.54 1012.69 1012.83 1012.89 1012.87 1012.75 1012.57 1012.38 1012.23 1012.17 1012.19 1012.30 1012.44 1012.58 1012.69 1012.75 1012.76 1012.76
1010.82 1010.54 1010.45 1010.60 1010.93 1011.36 1011.80 1012.13 1012.31 1012.34 1012.24 1012.11 1012.02 1012.03 1012.13 1012.31 1012.50 1012.66 1012.72 1012.68 1012.56 1012.42 1012.30 1012.27 1012.33 1012.47 1012.65 1012.80 1012.87 1012.85 1012.72 1012.54 1012.34 1012.19 1012.13 1012.16 1012.26 1012.41 1012.56 1012.68 1012.75 1012.79 1012.82
1010.73 1010.53 1010.52 1010.73 1011.11 1011.56 1011.98 1012.28 1012.43 1012.42 1012.32 1012.19 1012.10 1012.10 1012.20 1012.35 1012.51 1012.61 1012.62 1012.53 1012.38 1012.23 1012.13 1012.12 1012.21 1012.38 1012.58 1012.74 1012.82 1012.79 1012.67 1012.48 1012.29 1012.15 1012.09 1012.12 1012.22 1012.37 1012.51 1012.63 1012.72 1012.78 1012.85
1010.65 1010.53 1010.59 1010.87 1011.27 1011.71 1012.10 1012.35 1012.45 1012.41 1012.29 1012.17 1012.10 1012.11 1012.21 1012.34 1012.46 1012.52 1012.48 1012.36 1012.20 1012.04 1011.95 1011.96 1012.08 1012.27 1012.48 1012.65 1012.73 1012.70 1012.57 1012.39 1012.21 1012.08 1012.04 1012.07 1012.18 1012.32 1012.45 1012.57 1012.66 1012.73 1012.81
1010.59 1010.54 1010.68 1010.99 1011.39 1011.80 1012.13 1012.32 1012.37 1012.30 1012.17 1012.05 1012.00 1012.04 1012.14 1012.27 1012.36 1012.39 1012.32 1012.17 1012.00 1011.84 1011.77 1011.80 1011.94 1012.14 1012.35 1012.51 1012.58 1012.55 1012.43 1012.26 1012.10 1011.99 1011.97 1012.02 1012.12 1012.26 1012.38 1012.49 1012.56 1012.64 1012.73
1010.56 1010.57 1010.76 1011.08 1011.46 1011.82 1012.07 1012.19 1012.18 1012.08 1011.95 1011.86 1011.83 1011.90 1012.01 1012.14 1012.22 1012.22 1012.12 1011.96 1011.77 1011.63 1011.58 1011.63 1011.78 1011.98 1012.19 1012.34 1012.40 1012.36 1012.25 1012.10 1011.96 1011.88 1011.87 1011.94 1012.06 1012.20 1012.31 1012.40 1012.47 1012.53 1012.62
1010.56 1010.63 1010.84 1011.16 1011.49 1011.78 1011.95 1012.00 1011.94 1011.82 1011.70 1011.63 1011.64 1011.73 1011.86 1011.98 1012.04 1012.01 1011.89 1011.72 1011.54 1011.41 1011.37 1011.44 1011.61 1011.82 1012.02 1012.16 1012.21 1012.17 1012.05 1011.92 1011.80 1011.75 1011.78 1011.87 1012.01 1012.15 1012.26 1012.34 1012.40 1012.44 1012.52
1010.59 1010.70 1010.93 1011.22 1011.50 1011.70 1011.80 1011.79 1011.69 1011.56 1011.46 1011.43 1011.48 1011.59 1011.72 1011.83 1011.86 1011.80 1011.66 1011.47 1011.30 1011.18 1011.17 1011.26 1011.44 1011.66 1011.86 1011.99 1012.04 1011.99 1011.88 1011.76 1011.67 1011.65 1011.70 1011.82 1011.97 1012.12 1012.24 1012.32 1012.37 1012.40 1012.46
1010.65 1010.80 1011.03 1011.28 1011.50 1011.63 1011.66 1011.59 1011.48 1011.36 1011.29 1011.30 1011.38 1011.50 1011.63 1011.72 1011.72 1011.62 1011.45 1011.26 1011.08 1010.99 1011.00 1011.11 1011.31 1011.54 1011.74 1011.88 1011.92 1011.87 1011.77 1011.67 1011.59 1011.59 1011.66 1011.79 1011.95 1012.12 1012.25 1012.34 1012.38 1012.42 1012.47
1010.73 1010.91 1011.14 1011.35 1011.50 1011.57 1011.55 1011.46 1011.35 1011.25 1011.22 1011.27 1011.37 1011.50 1011.62 1011.67 1011.63 1011.50 1011.31 1011.10 1010.93 1010.85 1010.89 1011.03 1011.25 1011.49 1011.70 1011.83 1011.88 1011.84 1011.75 1011.65 1011.58 1011.58 1011.66 1011.80 1011.97 1012.14 1012.28 1012.38 1012.44 1012.48 1012.53
1010.81 1011.02 1011.24 1011.42 1011.52 1011.54 1011.49 1011.39 1011.30 1011.24 1011.25 1011.33 1011.45 1011.59 1011.68 1011.69 1011.62 1011.46 1011.24 1011.03 1010.87 1010.81 1010.87 1011.03 1011.26 1011.51 1011.73 1011.87 1011.92 1011.88 1011.80 1011.70 1011.64 1011.63 1011.70 1011.83 1011.99 1012.16 1012.30 1012.42 1012.50 1012.56 1012.63
1010.88 1011.11 1011.32 1011.47 1011.53 1011.52 1011.46 1011.38 1011.31 1011.30 1011.35 1011.46 1011.60 1011.72 1011.79 1011.78 1011.67 1011.49 1011.27 1011.06 1010.92 1010.88 1010.95 1011.12 1011.36 1011.61 1011.82 1011.96 1012.01 1011.97 1011.89 1011.80 1011.72 1011.71 1011.75 1011.85 1011.99 1012.14 1012.29 1012.42 1012.53 1012.62 1012.71
1010.90 1011.16 1011.36 1011.48 1011.53 1011.51 1011.46 1011.41 1011.38 1011.41 1011.50 1011.63 1011.77 1011.88 1011.93 1011.89 1011.77 1011.59 1011.38 1011.19 1011.07 1011.05 1011.13 1011.29 1011.51 1011.74 1011.93 1012.05 1012.09 1012.06 1011.98 1011.88 1011.80 1011.76 1011.77 1011.84 1011.94 1012.07 1012.21 1012.35 1012.48 1012.60 1012.72
1010.87 1011.14 1011.33 1011.45 1011.49 1011.49 1011.47 1011.46 1011.48 1011.55 1011.66 1011.80 1011.93 1012.03 1012.06 1012.01 1011.90 1011.74 1011.56 1011.41 1011.31 1011.30 1011.37 1011.51 1011.68 1011.86 1012.01 1012.11 1012.13 1012.09 1012.01 1011.92 1011.82 1011.76 1011.74 1011.77 1011.83 1011.93 1012.05 1012.18 1012.33 1012.48 1012.64
1010.79 1011.06 1011.25 1011.37 1011.43 1011.46 1011.49 1011.53 1011.60 1011.71 1011.84 1011.97 1012.09 1012.16 1012.18 1012.14 1012.04 1011.92 1011.79 1011.68 1011.61 1011.60 1011.65 1011.74 1011.85 1011.96 1012.05 1012.09 1012.09 1012.05 1011.97 1011.88 1011.78 1011.71 1011.66 1011.64 1011.66 1011.72 1011.82 1011.94 1012.10 1012.28 1012.47
1010.66 1010.93 1011.13 1011.26 1011.36 1011.45 1011.54 1011.64 1011.76 1011.89 1012.03 1012.14 1012.23 1012.28 1012.29 1012.25 1012.19 1012.11 1012.04 1011.98 1011.94 1011.93 1011.94 1011.96 1012.00 1012.02 1012.03 1012.02 1011.99 1011.94 1011.87 1011.79 1011.70 1011.62 1011.55 1011.50 1011.48 1011.50 1011.56 1011.67 1011.82 1012.01 1012.24
1010.50 1010.77 1010.98 1011.15 1011.31 1011.47 1011.63 1011.80 1011.97 1012.12 1012.25 1012.34 1012.39 1012.41 1012.40 1012.38 1012.35 1012.32 1012.30 1012.29 1012.28 1012.26 1012.23 1012.18 1012.13 1012.06 1011.99 1011.93 1011.86 1011.81 1011.75 1011.70 1011.63 1011.56 1011.48 1011.40 1011.34 1011.31 1011.33 1011.41 1011.55 1011.75 1011.99
1010.32 1010.60 1010.84 1011.06 1011.29 1011.53 1011.77 1012.01 1012.23 1012.40 1012.52 1012.57 1012.58 1012.57 1012.54 1012.52 1012.52 1012.54 1012.57 1012.60 1012.61 1012.58 1012.51 1012.40 1012.27 1012.12 1011.98 1011.87 1011.79 1011.74 1011.71 1011.68 1011.64 1011.59 1011.50 1011.40 1011.30 1011.23 1011.20 1011.24 1011.36 1011.54 1011.78
1010.14 1010.43 1010.71 1010.99 1011.30 1011.63 1011.96 1012.27 1012.52 1012.71 1012.81 1012.83 1012.80 1012.75 1012.69 1012.67 1012.69 1012.74 1012.82 1012.88 1012.91 1012.88 1012.79 1012.64 1012.44 1012.24 1012.05 1011.91 1011.83 1011.80 1011.80 1011.81 1011.80 1011.76 1011.68 1011.55 1011.42 1011.29 1011.22 1011.21 1011.28 1011.43 1011.65
1009.95 1010.28 1010.60 1010.95 1011.33 1011.74 1012.14 1012.51 1012.81 1013.00 1013.09 1013.09 1013.02 1012.93 1012.85 1012.82 1012.85 1012.93 1013.03 1013.13 1013.18 1013.15 1013.05 1012.88 1012.66 1012.43 1012.23 1012.09 1012.03 1012.02 1012.06 1012.11 1012.14 1012.11 1012.02 1011.88 1011.70 1011.52 1011.39 1011.32 1011.34 1011.44 1011.63
1009.77 1010.12 1010.49 1010.89 1011.34 1011.81 1012.27 1012.69 1013.01 1013.22 1013.30 1013.27 1013.18 1013.06 1012.96 1012.93 1012.96 1013.05 1013.18 1013.30 1013.37 1013.37 1013.28 1013.11 1012.90 1012.69 1012.51 1012.40 1012.37 1012.41 1012.49 1012.57 1012.62 1012.61 1012.51 1012.34 1012.12 1011.89 1011.69 1011.55 1011.51 1011.56 1011.69
1009.59 1009.97 1010.37 1010.81 1011.29 1011.80 1012.29 1012.73 1013.07 1013.29 1013.37 1013.34 1013.23 1013.10 1013.00 1012.96 1012.99 1013.10 1013.24 1013.38 1013.48 1013.50 1013.44 1013.31 1013.15 1012.98 1012.85 1012.79 1012.81 1012.89 1013.01 1013.12 1013.19 1013.17 1013.06 1012.87 1012.61 1012.33 1012.07 1011.87 1011.76 1011.75 1011.82
1009.41 1009.82 1010.24 1010.68 1011.17 1011.68 1012.17 1012.61 1012.95 1013.17 1013.26 1013.23 1013.13 1013.01 1012.92 1012.89 1012.93 1013.04 1013.19 1013.35 1013.47 1013.53 1013.52 1013.44 1013.33 1013.23 1013.16 1013.17 1013.24 1013.37 1013.52 1013.66 1013.73 1013.72 1013.60 1013.38 1013.09 1012.77 1012.47 1012.21 1012.04 1011.96 1011.96
Thickness
5788 5787 5783 5781 5779 5777 5776 5774 5772 5771 5769 5768 5767 5765 5764 5763 5762 5762 5761 5761 5761 5761 5761 5762 5762 5762 5763 5764 5764 5765 5765 5766 5766 5767 5768 5768 5769 5769 5769 5769 5769 5768 5767
5789 5784 5781 5778 5776 5774 5772 5770 5768 5767 5765 5764 5763 5761 5760 5760 5759 5758 5758 5758 5758 5758 5758 5759 5759 5760 5760 5761 5761 5762 5762 5763 5764 5765 5765 5766 5767 5767 5767 5767 5767 5766 5766
5788 5783 5778 5775 5772 5770 5768 5766 5764 5763 5761 5760 5758 5757 5757 5756 5755 5755 5755 5755 5755 5755 5755 5756 5756 5757 5757 5758 5758 5759 5759 5760 5761 5762 5764 5764 5765 5765 5765 5765 5765 5765 5765
5787 5781 5775 5771 5768 5766 5764 5762 5760 5758 5757 5755 5754 5753 5752 5752 5751 5751 5751 5751 5751 5751 5752 5753 5753 5754 5754 5755 5755 5756 5756 5757 5759 5760 5762 5763 5763 5763 5763 5763 5763 5763 5763
5783 5776 5770 5766 5763 5761 5759 5757 5755 5753 5752 5751 5749 5748 5747 5747 5747 5747 5747 5747 5748 5748 5749 5749 5750 5751 5751 5752 5753 5753 5754 5755 5757 5758 5760 5761 5761 5761 5761 5761 5761 5761 5761
5778 5772 5766 5762 5759 5756 5754 5752 5750 5748 5747 5745 5744 5743 5743 5742 5742 5742 5742 5743 5744 5744 5745 5746 5747 5748 5749 5750 5750 5750 5751 5752 5754 5757 5759 5760 5760 5759 5759 5759 5760 5759 5760
5774 5770 5763 5759 5756 5753 5750 5748 5745 5743 5742 5740 5739 5738 5738 5737 5737 5737 5737 5738 5739 5739 5741 5742 5744 5745 5746 5747 5748 5748 5749 5750 5752 5755 5757 5758 5758 5757 5757 5758 5758 5758 5758
5771 5768 5762 5757 5754 5751 5748 5744 5742 5739 5738 5736 5735 5734 5733 5732 5732 5732 5733 5734 5734 5735 5736 5738 5740 5742 5744 5745 5745 5746 5747 5748 5752 5754 5756 5756 5756 5756 5756 5756 5756 5756 5757
5770 5766 5761 5757 5753 5749 5746 5742 5740 5737 5735 5733 5731 5730 5729 5728 5728 5728 5728 5729 5730 5730 5732 5733 5736 5738 5740 5741 5743 5744 5745 5746 5749 5752 5755 5755 5754 5754 5754 5755 5755 5755 5755
5767 5764 5761 5757 5753 5749 5745 5741 5738 5736 5733 5731 5728 5727 5726 5725 5725 5725 5725 5725 5725 5726 5727 5729 5731 5734 5736 5738 5740 5741 5743 5744 5747 5751 5753 5754 5753 5753 5753 5753 5753 5753 5754
5763 5762 5760 5757 5753 5750 5747 5742 5739 5736 5732 5729 5727 5725 5723 5723 5724 5723 5722 5721 5721 5722 5723 5725 5727 5730 5732 5734 5737 5739 5740 5743 5747 5750 5752 5752 5752 5752 5752 5752 5752 5752 5752
5759 5759 5759 5756 5753 5750 5746 5742 5738 5735 5731 5729 5726 5724 5721 5721 5720 5720 5719 5718 5717 5717 5718 5720 5722 5725 5728 5731 5733 5736 5739 5742 5746 5749 5750 5750 5750 5751 5751 5751 5751 5751 5751
5760 5757 5757 5755 5752 5749 5744 5741 5737 5734 5731 5728 5724 5722 5719 5718 5716 5716 5715 5714 5714 5714 5714 5716 5718 5721 5724 5728 5731 5734 5737 5740 5744 5746 5747 5748 5749 5749 5750 5750 5750 5750 5751
5759 5756 5754 5752 5750 5746 5742 5738 5736 5732 5729 5725 5722 5719 5716 5713 5711 5711 5710 5710 5710 5710 5711 5712 5714 5718 5722 5725 5729 5732 5736 5738 5741 5743 5744 5746 5747 5748 5748 5749 5749 5749 5750
5758 5756 5753 5750 5747 5744 5740 5736 5735 5731 5727 5724 5719 5716 5714 5710 5708 5706 5706 5706 5706 5706 5707 5708 5711 5714 5717 5721 5725 5729 5732 5735 5738 5740 5742 5743 5745 5746 5747 5748 5748 5748 5749
5759 5756 5752 5748 5746 5743 5740 5736 5732 5729 5725 5721 5717 5714 5711 5708 5705 5703 5701 5701 5701 5702 5703 5704 5707 5709 5712 5717 5720 5725 5728 5732 5735 5737 5740 5742 5744 5745 5746 5747 5748 5748 5748
5760 5757 5751 5748 5745 5742 5737 5733 5730 5727 5723 5719 5714 5711 5708 5705 5702 5699 5697 5696 5696 5697 5698 5700 5702 5705 5708 5712 5716 5722 5725 5728 5731 5735 5738 5741 5743 5744 5745 5746 5747 5747 5747
5761 5756 5751 5748 5743 5740 5735 5731 5728 5725 5720 5716 5711 5707 5704 5701 5699 5696 5693 5692 5692 5693 5694 5695 5696 5698 5701 5705 5710 5716 5721 5724 5729 5733 5736 5740 5742 5744 5745 5745 5746 5747 5747
5760 5755 5751 5746 5741 5738 5734 5731 5727 5723 5718 5714 5709 5704 5700 5697 5694 5693 5690 5689 5689 5689 5689 5691 5692 5694 5696 5700 5705 5711 5716 5720 5725 5729 5734 5738 5741 5743 5744 5745 5745 5746 5747
5758 5754 5750 5744 5740 5736 5732 5730 5724 5720 5716 5712 5706 5701 5697 5693 5691 5690 5688 5687 5685 5684 5684 5686 5687 5691 5693 5697 5702 5708 5712 5717 5721 5725 5730 5734 5738 5741 5743 5743 5743 5744 5745
5755 5752 5749 5744 5740 5734 5729 5724 5719 5715 5712 5708 5704 5699 5695 5692 5689 5688 5685 5684 5683 5681 5681 5683 5684 5686 5689 5694 5696 5699 5707 5714 5718 5722 5726 5730 5734 5738 5740 5740 5742 5743 5744
5753 5750 5750 5745 5739 5733 5727 5724 5720 5715 5711 5707 5704 5699 5695 5691 5687 5686 5683 5682 5681 5680 5680 5681 5682 5682 5686 5691 5691 5691 5693 5700 5709 5718 5722 5725 5730 5734 5737 5739 5741 5742 5743
5752 5750 5748 5743 5738 5733 5728 5723 5718 5714 5709 5705 5701 5697 5694 5691 5687 5684 5683 5681 5681 5680 5678 5679 5680 5681 5681 5686 5691 5688 5686 5687 5697 5709 5717 5722 5725 5729 5732 5736 5738 5739 5740
5754 5752 5749 5744 5739 5733 5727 5721 5715 5709 5704 5702 5700 5698 5695 5692 5689 5685 5682 5681 5680 5679 5678 5679 5680 5681 5681 5681 5686 5690 5692 5693 5691 5695 5706 5715 5720 5723 5727 5732 5735 5736 5738
5756 5751 5747 5743 5737 5731 5727 5720 5715 5710 5706 5705 5702 5698 5695 5693 5690 5687 5684 5682 5681 5680 5679 5679 5680 5681 5681 5680 5682 5685 5688 5691 5694 5692 5693 5702 5710 5717 5722 5726 5729 5732 5734
5754 5749 5745 5740 5735 5731 5726 5721 5716 5711 5707 5704 5701 5698 5695 5693 5691 5688 5686 5684 5682 5681 5680 5680 5680 5681 5681 5681 5682 5683 5684 5684 5686 5689 5690 5694 5700 5708 5716 5720 5723 5727 5729